ECMWFNIL_850_spd_072.txt.gz
Wind_Speed
28 26 26 25 23 21 20 19 19 17 15 14 13 12 11 9 8 8 8 8 8 9 8 6 5 6 6 5 4 4 4 4 4 4 4 4 5 6 7 8 9 10
28 27 26 26 24 23 21 19 19 17 15 13 12 11 12 13 10 9 9 8 8 9 8 6 5 5 5 6 5 5 4 4 4 4 4 4 4 5 6 7 8 9
28 27 27 26 25 24 22 19 18 17 14 13 10 10 11 11 11 11 8 7 8 9 8 8 6 5 5 6 6 6 4 4 5 4 4 4 4 5 5 6 7 9
29 28 28 26 24 23 21 19 17 16 15 13 11 11 11 10 11 12 10 8 8 8 10 9 7 6 5 5 6 6 5 5 5 5 5 5 5 6 7 7 8 9
29 28 27 26 24 23 21 18 18 17 16 13 12 12 13 12 12 12 12 10 7 6 10 10 8 7 5 5 6 6 5 5 5 6 6 5 5 5 6 8 9 10
29 27 27 26 25 24 21 19 19 19 17 15 15 14 14 13 12 11 11 9 5 6 10 9 8 8 5 6 6 5 5 4 4 5 5 5 7 6 5 8 9 10
30 27 27 26 25 24 22 20 19 19 19 18 17 16 14 13 12 10 9 8 4 5 8 8 9 8 6 6 7 6 5 3 4 6 4 4 8 8 6 8 9 10
29 27 26 26 25 24 23 20 18 18 19 19 16 15 15 14 12 10 9 7 4 5 7 8 9 8 7 8 8 6 5 4 4 6 6 5 7 9 8 8 9 10
28 25 24 25 25 24 23 20 18 17 17 17 15 14 15 13 11 10 10 8 6 6 7 8 9 8 8 8 7 7 7 5 4 5 7 7 7 9 8 8 9 11
28 25 24 25 24 24 23 21 19 16 15 15 14 14 14 12 10 10 10 8 8 7 7 9 9 9 9 8 7 8 7 6 3 2 6 8 8 9 8 8 10 12
28 24 24 25 25 25 24 21 18 15 14 14 14 14 13 11 11 11 10 9 8 7 8 9 8 8 9 7 7 8 7 6 5 3 5 8 9 9 8 9 11 12
28 25 24 25 26 25 23 21 20 18 16 16 15 14 13 12 12 12 10 9 8 8 8 9 8 8 8 7 7 8 7 7 7 5 5 6 7 9 8 8 10 10
26 25 24 24 25 25 22 20 21 19 17 17 16 14 14 13 13 11 10 8 8 7 7 8 8 7 8 7 7 7 8 8 8 8 6 6 6 7 8 9 9 9
26 25 24 22 23 23 20 18 18 17 16 16 15 14 14 13 12 12 11 9 8 8 7 8 9 9 9 8 7 7 8 8 9 9 8 8 7 6 7 9 9 8
26 25 25 23 22 21 19 16 16 16 16 15 14 15 15 12 11 12 11 10 10 9 9 11 12 11 11 10 9 9 8 8 9 8 8 9 9 8 8 8 7 8
26 25 26 24 23 21 19 18 17 16 16 15 14 16 15 12 12 12 10 10 11 10 12 13 12 12 12 11 11 11 10 9 8 7 7 8 7 7 9 8 6 8
28 26 26 25 24 22 20 19 19 17 17 16 16 16 14 13 13 12 10 10 11 12 13 13 12 13 14 12 11 11 11 10 9 7 6 6 5 5 7 6 5 5
29 27 27 27 26 25 23 21 19 18 18 18 18 18 17 16 16 15 13 13 14 14 13 12 11 12 14 13 12 12 11 10 10 9 7 6 3 3 4 3 3 4
28 27 25 26 27 27 25 24 22 20 19 19 20 20 19 18 18 17 15 14 13 12 11 10 9 11 14 14 12 11 10 10 10 8 8 6 3 2 3 3 4 5
25 25 23 23 25 26 26 27 26 23 20 19 19 19 18 17 16 15 13 11 9 9 7 6 7 9 12 14 14 11 9 9 8 6 7 7 5 6 7 8 9 9
21 23 23 22 22 23 24 26 26 23 21 19 19 18 17 15 13 12 11 7 6 6 5 5 7 7 7 9 10 8 5 6 4 5 7 8 7 7 8 10 13 13
18 20 20 19 19 20 21 22 22 22 20 21 20 19 17 14 10 7 6 4 3 3 2 3 4 4 3 5 6 4 4 6 8 11 10 9 9 11 12 12 13 15
17 18 18 18 19 19 18 18 19 20 20 21 21 18 14 11 7 5 5 5 5 5 5 4 3 3 4 6 8 9 10 11 14 15 10 8 10 12 13 13 11 12
16 16 15 15 15 15 16 16 17 18 18 19 18 16 12 12 13 14 15 15 14 14 12 10 8 9 10 11 12 14 15 16 17 15 11 10 11 12 12 12 11 10
15 14 14 13 14 15 15 14 14 14 13 13 13 11 9 10 13 15 16 17 17 18 18 16 15 14 14 14 13 13 14 15 15 15 13 11 10 10 10 10 9 8
16 14 13 13 14 14 13 12 12 11 10 9 8 7 5 5 6 7 7 9 11 12 13 14 15 15 13 12 12 12 13 13 13 13 13 11 8 6 6 7 7 7

ECMWFNIL_850_spd_075.txt.gz
Wind_Speed
20 20 19 21 22 22 21 21 21 22 21 20 20 21 20 20 18 16 16 15 14 14 14 14 14 14 14 13 12 12 12 11 11 12 12 12 13 13 13 13 13 12
21 20 20 22 22 21 21 20 20 20 19 17 17 17 17 16 16 16 17 17 15 14 14 13 13 14 14 13 12 11 11 11 11 11 11 11 11 12 12 13 13 12
23 21 22 22 21 20 20 20 20 19 18 16 15 15 15 15 16 16 16 17 16 15 13 11 11 12 12 13 12 11 10 10 11 11 10 9 10 11 11 12 12 12
23 22 22 22 21 20 20 22 21 19 18 17 15 15 16 16 16 15 14 14 14 14 13 11 11 11 11 12 13 11 10 11 11 11 10 9 9 10 11 12 12 12
22 23 23 21 21 21 22 23 21 19 18 17 16 16 16 17 16 14 13 12 10 12 13 12 12 11 10 12 12 10 10 10 10 10 10 9 9 9 10 11 11 11
22 23 22 21 21 23 23 23 21 19 18 17 16 16 16 17 17 15 14 11 8 12 14 14 13 11 10 11 11 9 10 9 9 10 9 9 9 9 9 9 9 11
23 22 22 21 22 24 24 23 21 21 19 18 17 16 15 16 17 16 14 10 9 13 16 15 14 11 10 11 10 9 9 9 9 9 9 10 10 10 10 9 9 11
24 22 22 22 22 25 25 23 22 22 20 19 18 16 15 15 15 14 11 8 10 14 16 15 13 11 12 12 10 9 10 10 10 8 6 8 10 10 10 10 10 11
24 23 23 24 25 26 25 24 23 22 20 19 17 15 15 15 13 12 10 8 10 14 15 14 13 13 14 12 10 10 10 10 10 8 6 9 10 10 9 10 11 12
25 25 26 27 27 27 27 26 23 21 20 18 15 16 17 15 12 12 11 9 9 12 14 14 13 13 13 11 11 10 9 8 7 8 9 10 11 10 10 11 13 13
28 30 29 28 28 27 27 25 21 19 19 17 16 19 18 14 12 13 12 10 9 12 14 13 12 12 11 12 12 9 8 7 7 10 13 13 12 11 11 12 13 14
30 30 29 28 27 26 25 22 19 18 17 17 20 21 17 14 14 14 13 11 10 12 13 12 11 11 11 12 13 10 8 9 8 9 11 12 11 11 11 12 12 15
30 28 27 27 25 24 22 21 19 18 17 19 22 21 18 16 16 14 12 12 12 13 14 12 13 13 11 11 13 11 10 10 9 9 9 10 10 10 11 11 11 15
31 29 28 26 25 23 21 20 18 18 19 19 20 20 20 19 17 14 13 15 15 15 15 14 14 14 12 12 12 12 12 12 10 9 9 10 11 11 12 11 12 16
31 30 29 28 26 24 21 20 19 20 20 19 18 20 19 18 17 15 14 16 16 15 15 14 14 14 12 12 12 12 13 14 12 10 10 11 12 13 11 9 10 13
31 30 28 26 24 23 22 21 20 19 20 19 20 20 18 17 18 16 15 16 15 15 15 15 13 13 13 12 12 12 14 14 12 12 12 12 12 12 11 9 8 8
30 28 26 24 22 21 21 21 19 19 21 21 20 20 19 20 19 17 16 16 15 15 15 14 13 14 13 12 12 13 14 13 12 12 12 11 10 10 10 10 9 7
30 29 29 28 25 23 22 23 22 22 23 22 20 20 21 20 18 16 17 16 14 14 14 13 14 15 14 14 14 14 14 13 13 14 13 12 11 10 9 9 8 7
30 31 31 30 27 25 26 27 26 25 26 23 20 20 21 19 17 17 17 14 13 14 14 12 13 14 14 14 14 14 14 14 14 13 13 13 12 11 9 8 7 7
30 30 29 28 28 28 28 29 28 27 27 25 22 21 20 18 16 16 16 14 13 13 12 11 12 13 14 15 15 14 14 14 13 11 12 11 10 9 8 6 6 6
27 28 29 28 29 29 30 30 29 28 27 26 24 22 20 18 16 15 14 13 11 10 10 10 11 12 14 15 15 14 13 14 11 8 8 9 7 6 5 4 4 5
27 27 28 28 27 30 31 30 28 27 25 24 23 22 20 19 17 15 14 12 11 11 11 11 10 11 12 14 14 14 14 14 10 4 2 3 4 5 6 6 7 8
30 29 28 27 26 27 29 28 26 24 22 22 22 21 20 19 18 16 13 12 11 11 10 10 9 9 10 11 12 13 12 12 10 6 5 7 7 7 8 9 9 9
24 26 27 27 25 23 24 24 22 20 19 20 21 19 18 17 17 15 13 11 10 8 7 6 5 6 7 8 8 8 7 8 9 9 9 10 10 8 8 9 9 10
13 17 20 23 24 24 24 23 20 18 20 21 20 18 17 17 16 15 14 12 10 8 7 7 6 5 5 5 5 6 7 8 9 10 10 9 8 8 8 9 10 10
11 13 15 17 19 20 21 20 19 20 20 20 18 16 14 13 12 12 13 12 11 9 9 10 9 8 7 8 9 9 9 9 9 10 11 10 10 9 9 9 9 8

ECMWFNIL_850_spd_078.txt.gz
Wind_Speed
18 19 21 22 21 21 21 23 23 21 22 23 23 22 20 19 17 15 15 15 16 15 15 16 16 15 15 15 14 14 13 13 13 13 13 13 14 14 13 13 13 13
18 18 19 20 21 21 21 23 22 21 22 24 23 21 20 19 18 15 15 16 16 16 16 16 15 14 15 15 14 14 14 14 14 14 14 14 14 14 13 13 14 14
17 17 18 19 20 21 20 21 21 21 22 23 22 21 21 19 17 15 15 16 17 17 16 16 15 15 15 15 14 14 14 14 14 14 14 14 14 14 14 14 14 15
17 17 19 20 19 19 19 19 20 22 22 22 22 22 21 19 17 16 17 17 17 17 17 16 15 16 15 14 14 13 13 13 13 13 14 14 13 13 15 15 14 14
18 18 20 20 19 19 18 18 21 23 23 23 23 23 21 19 19 19 19 19 17 17 16 15 15 16 16 15 14 13 13 13 13 12 13 13 13 13 13 14 13 13
17 19 20 20 18 19 19 20 22 23 22 23 23 22 20 21 21 20 20 19 18 17 16 15 15 16 17 16 15 14 14 14 13 12 12 11 11 12 12 12 12 12
15 19 21 20 18 19 20 22 24 23 23 25 23 21 21 22 21 20 20 19 18 17 16 16 16 16 16 16 15 14 13 13 13 12 12 11 11 12 12 11 12 12
16 18 22 21 20 20 22 24 25 23 24 25 22 20 22 22 21 20 18 16 16 17 17 17 16 15 15 15 14 13 13 14 14 13 13 12 12 11 11 11 12 12
17 18 21 22 21 23 25 26 25 23 25 24 20 20 22 21 20 19 17 14 16 19 19 17 16 15 15 14 14 14 14 14 14 13 12 13 12 11 11 11 11 12
19 20 20 21 23 25 27 27 24 23 26 23 20 21 22 21 20 17 14 16 20 22 20 17 18 17 16 15 14 14 13 13 13 12 11 12 13 12 12 12 12 12
21 22 22 23 25 26 28 27 24 25 27 23 20 22 21 20 18 14 14 19 23 22 19 19 19 18 16 15 13 12 10 10 11 11 10 12 13 13 12 13 12 13
22 23 25 27 27 26 28 26 24 27 28 23 21 22 21 19 17 15 15 19 23 22 20 20 19 17 15 14 13 11 9 9 10 11 12 12 13 13 12 12 13 14
22 25 27 28 27 27 27 25 26 29 27 22 22 23 21 19 19 16 15 18 22 22 20 19 19 17 16 15 14 12 10 10 11 13 13 13 13 12 12 13 15 16
23 27 29 29 28 28 27 27 28 27 24 22 24 24 21 20 20 18 17 19 22 21 19 18 18 18 17 16 14 13 11 11 12 13 14 14 13 12 12 13 14 15
26 29 30 29 29 29 27 28 27 24 23 24 24 23 23 22 21 19 19 20 21 20 18 18 18 17 17 16 14 15 14 13 13 14 15 15 14 13 13 13 14 14
29 30 30 29 29 28 27 26 26 25 26 26 24 24 24 23 21 20 20 20 20 19 18 19 18 17 17 16 16 16 15 14 14 14 15 16 16 15 15 15 15 14
31 32 31 29 29 28 27 26 27 28 28 26 25 26 25 24 21 20 20 20 19 18 18 18 18 17 17 17 17 16 15 15 15 15 16 16 16 15 15 15 15 14
31 31 29 28 29 30 30 29 29 28 27 27 26 26 25 24 21 19 20 20 19 18 18 18 17 17 16 16 17 18 17 16 16 16 16 16 15 14 14 13 12 12
27 28 30 31 31 31 30 30 29 28 27 27 25 25 24 23 20 18 20 20 19 18 18 18 17 17 17 16 16 18 18 17 16 16 15 15 15 14 14 12 10 9
26 29 32 30 29 28 26 26 28 28 27 26 25 25 24 22 20 21 21 21 19 18 17 18 18 18 17 16 16 16 17 17 17 17 16 15 15 14 13 11 9 7
26 29 28 25 27 28 25 24 26 26 26 26 26 26 25 23 23 22 21 20 18 17 17 18 19 19 18 17 16 16 16 17 18 18 17 16 14 13 11 10 9 8
27 29 26 25 28 31 28 27 27 27 27 28 27 26 26 26 24 22 20 18 17 15 16 17 18 18 17 17 16 16 16 16 17 17 16 15 13 11 9 8 8 7
24 26 26 27 30 31 30 30 30 28 28 29 29 28 28 27 25 21 19 16 15 14 14 15 17 17 17 16 16 16 15 15 15 14 13 12 11 9 7 6 6 6
22 24 27 30 33 33 33 33 32 31 30 29 28 27 27 26 25 23 21 18 17 16 15 15 17 18 17 16 16 16 16 15 14 11 9 8 7 7 7 7 7 7
20 25 30 33 34 35 36 34 31 30 29 27 26 25 24 25 24 23 22 21 20 19 17 16 16 17 17 17 17 16 15 15 13 10 8 8 7 7 7 7 7 7
13 19 25 30 31 31 30 26 21 19 18 19 21 22 22 22 21 21 21 21 19 17 16 15 14 13 13 13 13 12 10 10 10 9 9 8 7 7 7 7 7 8

ECMWFNIL_850_spd_084.txt.gz
Wind_Speed
16 17 19 21 21 21 21 22 23 22 19 18 19 20 20 19 18 18 18 17 18 18 19 20 19 18 17 17 18 18 18 18 17 16 16 15 14 13 12 12 11 10
15 15 17 19 20 21 21 22 23 22 19 18 19 20 20 20 20 20 18 18 19 19 18 20 20 19 18 18 18 18 18 18 17 16 15 14 14 13 12 12 10 9
14 15 16 18 19 20 21 22 23 22 20 18 18 19 21 21 20 19 18 18 18 17 18 20 21 20 19 19 19 18 18 17 17 16 15 14 14 13 13 12 11 10
14 15 16 18 19 20 21 22 23 22 20 19 18 18 20 20 19 19 18 18 17 17 18 20 21 21 20 19 19 18 17 16 16 16 15 15 15 14 14 13 13 11
15 15 17 19 21 22 22 22 22 21 21 20 18 18 20 21 20 20 19 18 17 17 18 19 20 20 19 19 18 17 16 16 16 16 16 16 15 15 14 14 13 12
17 17 18 18 20 21 22 21 21 21 21 20 19 19 20 21 21 20 20 18 17 17 18 20 20 18 18 17 17 16 16 15 16 16 16 15 14 13 13 13 13 12
14 16 18 18 17 19 20 20 21 22 21 20 20 20 21 22 22 21 20 18 17 17 18 19 18 17 17 17 16 16 16 15 15 15 14 13 12 12 12 12 12 12
12 13 15 16 16 19 20 20 21 22 21 20 21 22 22 22 22 21 21 19 18 18 19 19 18 17 18 17 17 17 16 15 15 14 12 12 11 11 11 12 12 12
12 11 13 16 18 20 20 20 20 21 21 21 21 22 22 22 21 21 21 19 18 19 20 19 18 18 18 17 17 17 16 15 14 13 12 11 11 11 11 11 11 11
13 12 14 16 19 20 20 19 20 21 21 21 22 22 22 22 21 21 21 20 19 20 19 19 18 17 17 17 17 16 15 15 14 13 12 11 10 9 9 10 10 11
14 15 16 17 18 19 19 18 19 21 22 22 23 23 22 22 22 21 21 20 20 18 17 17 16 15 16 17 18 17 15 14 13 13 13 11 10 9 9 10 11 12
15 17 17 16 16 16 16 17 19 22 24 24 24 23 23 22 22 22 21 20 18 16 16 15 15 15 16 17 17 17 16 14 14 14 12 11 10 10 10 11 11 12
13 17 18 15 13 14 14 16 20 23 25 26 26 24 24 23 22 22 21 19 17 15 15 15 15 16 16 16 17 17 16 15 15 14 12 12 12 11 11 11 11 12
10 14 18 15 13 15 16 17 21 24 26 27 26 25 24 23 23 23 22 20 18 17 16 16 16 17 17 16 16 16 16 15 15 14 13 13 13 12 11 11 11 11
8 10 14 15 14 17 19 20 23 26 27 28 27 25 24 23 23 24 23 21 19 17 16 16 17 17 16 16 16 15 15 15 14 14 13 13 13 13 12 11 11 11
8 7 11 15 16 18 20 21 24 27 28 29 29 27 25 24 24 23 21 20 18 16 17 17 17 17 17 16 15 15 15 14 14 13 13 13 14 14 13 12 12 12
13 8 9 13 15 17 20 22 26 28 29 30 31 28 26 25 23 22 21 19 17 17 17 18 18 18 17 16 15 13 13 13 14 15 15 15 15 14 13 13 13 14
18 11 8 10 12 16 20 24 27 30 31 32 31 29 27 26 23 21 20 20 19 19 19 19 19 18 17 16 14 13 12 12 14 16 16 15 14 12 12 14 16 17
19 12 8 8 9 12 19 25 28 31 33 31 30 29 28 26 24 20 19 20 21 21 20 20 19 18 17 16 14 13 12 12 15 16 15 14 13 13 14 17 18 18
19 12 9 9 11 13 19 25 27 30 33 31 29 30 29 27 25 21 20 22 23 21 20 20 19 18 17 16 14 14 12 12 14 16 15 14 15 16 18 19 18 17
18 13 10 10 13 16 21 26 27 28 31 32 30 31 31 29 27 23 21 23 23 22 21 20 18 17 16 15 15 14 13 12 14 16 16 17 18 19 20 18 16 15
14 12 9 10 13 17 22 26 27 28 30 31 32 33 32 30 28 25 23 23 23 21 20 19 18 17 15 15 16 14 13 14 15 15 16 17 19 21 20 18 15 13
10 9 7 5 6 12 20 25 27 28 30 31 32 32 31 30 29 27 24 24 23 21 19 19 18 17 16 14 14 14 13 14 15 15 16 16 18 21 21 19 16 13
7 6 6 6 7 3 8 18 24 28 30 29 28 30 29 27 28 28 25 25 24 21 20 20 19 18 15 13 13 14 13 13 14 15 15 16 18 18 17 16 15 13
7 3 4 6 8 8 4 4 8 17 24 24 23 26 26 24 26 28 26 25 24 21 21 21 20 18 15 13 13 13 12 12 14 15 17 18 17 16 14 13 13 12
12 4 3 6 7 6 6 7 8 5 10 14 16 20 22 22 23 25 25 25 23 22 22 22 22 21 18 14 13 12 11 12 14 16 18 17 15 14 13 12 10 10

ECMWFNIL_850_spd_087.txt.gz
Wind_Speed
16 17 18 18 18 19 18 17 17 17 16 15 16 16 14 13 14 15 19 20 20 20 21 21 20 20 21 20 19 20 20 20 19 18 19 19 18 17 18 16 15 13
15 16 17 18 18 18 18 17 17 18 17 15 15 16 14 14 15 17 18 19 20 20 20 20 19 20 21 20 20 20 20 20 19 19 20 20 19 18 18 16 14 13
14 15 16 17 17 17 17 17 17 19 18 15 15 16 15 14 15 17 17 18 20 20 19 19 19 19 20 20 19 19 19 19 19 20 20 20 20 19 18 15 14 13
14 16 16 16 16 17 17 17 17 18 17 15 15 15 16 16 16 17 18 18 20 20 19 19 19 19 20 19 18 19 19 19 19 19 19 19 19 18 16 15 15 14
14 17 19 18 17 17 18 19 19 18 17 15 14 15 16 17 17 17 18 19 20 20 19 19 19 19 19 18 18 19 18 19 20 20 20 19 18 16 15 15 15 15
15 17 19 20 18 16 18 19 18 19 19 17 16 16 17 18 18 17 18 19 20 19 18 19 19 19 18 17 18 18 18 21 22 21 20 19 17 16 15 15 15 15
16 16 16 16 18 18 18 17 16 18 20 20 18 18 17 17 18 18 19 19 20 19 18 18 18 19 18 17 17 18 20 20 19 18 18 17 16 16 16 15 15 15
15 16 14 13 16 19 18 17 15 17 20 20 19 18 17 17 18 18 19 19 20 19 18 17 19 19 19 19 18 19 20 19 17 17 17 16 16 16 15 16 16 16
14 17 16 15 15 16 17 17 18 19 20 20 19 18 18 18 19 20 20 20 20 20 18 18 19 20 21 20 20 20 19 18 17 17 16 15 15 15 15 15 15 16
14 16 17 18 18 18 18 19 20 20 21 21 20 19 19 19 21 21 21 21 22 20 18 18 19 21 22 21 20 19 18 17 17 16 15 15 14 14 14 14 14 15
14 15 16 17 19 21 22 23 23 22 22 22 22 20 21 21 22 23 22 22 23 20 18 18 20 21 22 20 18 16 16 16 16 15 14 14 14 13 13 13 14 14
11 13 16 17 19 21 23 24 23 23 23 23 23 22 22 23 24 23 23 23 23 20 19 19 20 21 20 19 17 16 16 15 14 14 14 14 14 13 13 13 14 14
12 11 14 18 19 21 22 24 24 23 22 22 24 23 23 25 26 24 23 23 21 20 19 20 19 19 18 17 17 17 17 16 14 14 15 15 14 14 14 14 14 15
13 13 13 16 18 19 21 24 25 23 20 20 23 25 26 26 26 24 23 23 21 20 21 20 18 17 16 16 17 17 17 17 16 15 15 16 15 15 14 14 14 14
15 14 14 15 17 18 19 22 23 22 19 19 22 26 27 26 25 24 23 23 22 23 22 20 17 16 15 15 16 17 18 17 16 16 16 16 16 16 15 14 14 14
17 15 14 15 16 17 18 19 21 21 20 20 21 25 27 27 25 24 23 23 24 25 22 19 17 15 14 14 15 17 18 18 17 17 17 16 16 16 16 15 15 15
17 14 13 13 14 16 17 18 19 20 20 21 21 22 27 28 26 25 24 24 26 25 21 18 17 16 15 15 16 17 17 17 17 18 18 16 15 16 16 15 15 15
19 16 14 12 11 12 13 14 16 17 18 19 19 20 25 26 25 24 24 25 25 23 19 17 17 17 16 16 16 17 17 17 17 18 17 16 16 17 15 15 17 17
22 20 19 15 11 10 10 10 11 14 16 17 17 19 23 25 25 23 23 24 24 20 18 18 18 18 18 17 16 16 16 16 16 17 17 16 18 18 16 17 18 19
22 22 21 21 20 16 12 11 11 13 15 16 16 18 22 24 25 25 24 23 21 18 18 19 20 19 18 17 16 15 14 14 15 17 17 18 18 18 17 18 19 20
19 21 21 22 24 24 20 16 14 14 15 16 17 19 23 25 27 28 26 21 18 18 19 21 21 20 17 16 15 14 13 13 15 17 18 18 18 18 18 19 20 21
18 18 19 20 22 25 24 19 15 14 15 17 19 22 24 27 29 27 23 21 20 19 20 22 21 19 17 15 14 13 12 12 14 17 18 18 18 19 20 21 21 21
19 15 16 17 18 21 23 20 13 12 14 15 19 23 24 25 27 25 22 23 22 20 20 21 20 19 17 15 14 13 11 10 11 15 18 19 20 21 23 23 23 21
23 17 14 14 15 17 20 20 14 7 9 12 14 20 22 21 22 24 23 23 22 20 19 19 19 18 18 16 14 12 10 9 10 14 18 20 22 25 25 24 22 19
28 22 17 13 12 14 17 18 18 14 6 4 8 13 15 15 16 20 21 21 20 20 19 19 19 18 17 15 14 11 10 10 12 14 18 22 24 25 22 19 18 17
28 27 22 15 12 13 16 17 19 19 13 5 4 4 6 8 11 15 18 19 20 21 21 19 18 17 14 12 12 11 9 9 11 14 17 21 23 21 19 18 18 19

ECMWFNIL_850_spd_093.txt.gz
Wind_Speed
9 9 9 11 13 13 15 17 19 19 19 19 19 19 19 20 20 21 21 20 19 20 19 17 18 19 20 21 21 22 22 22 22 22 21 20 19 18 18 19 19 19
9 9 9 11 12 13 15 17 17 18 20 21 22 23 22 21 21 20 20 20 20 20 19 18 19 20 20 20 21 22 21 22 23 22 21 20 19 19 19 19 18 19
9 9 10 11 13 14 15 16 16 17 20 21 22 24 24 24 23 22 21 20 20 20 20 19 20 21 21 20 21 23 23 23 24 22 21 20 20 20 20 20 19 20
10 10 11 11 13 15 15 15 15 17 20 21 21 22 24 26 25 24 23 22 21 22 20 19 20 22 23 22 21 22 22 22 23 23 22 21 21 21 20 21 21 21
11 11 12 13 13 15 15 16 16 17 20 21 20 21 23 25 26 26 25 23 23 23 20 18 20 22 24 22 21 21 22 21 22 23 23 22 22 21 21 22 23 22
12 12 12 13 14 15 15 16 17 17 19 21 21 21 22 24 26 27 28 26 24 23 20 19 19 22 24 23 22 22 22 21 22 22 22 22 21 21 22 23 23 22
13 13 13 12 14 15 16 17 17 17 19 21 22 22 23 24 26 27 27 27 26 22 19 19 20 22 24 25 24 23 22 21 21 22 22 22 22 22 23 23 23 23
12 13 14 12 12 14 16 16 16 17 19 20 22 23 23 23 25 26 25 25 24 21 19 19 21 22 24 26 25 23 23 22 22 22 22 23 23 24 24 25 25 25
12 12 14 14 13 13 14 15 15 17 19 20 21 22 22 22 22 23 23 24 23 21 20 20 21 23 24 26 26 24 23 24 23 23 23 23 23 23 24 26 28 27
13 14 15 16 16 15 14 14 15 16 19 20 20 20 21 21 20 20 21 22 23 23 22 21 21 23 23 25 26 24 22 23 22 23 24 23 23 22 22 25 26 26
14 15 15 16 17 17 17 16 15 16 18 20 20 20 20 21 20 21 21 21 22 23 22 20 21 23 22 22 23 23 22 21 20 21 23 23 22 21 22 22 23 23
13 14 15 17 18 18 17 17 16 16 17 18 19 20 20 20 21 23 24 23 21 22 20 18 20 24 22 20 20 20 20 19 19 21 22 22 21 22 22 22 21 21
13 13 14 14 16 18 18 16 16 17 18 19 20 20 20 20 20 22 24 23 22 21 20 20 21 23 22 20 18 17 18 18 19 20 21 21 20 20 20 20 20 20
13 13 13 13 15 19 21 18 15 16 17 18 19 20 21 20 19 19 20 20 20 20 21 21 20 21 20 20 19 19 18 18 19 19 19 19 19 17 17 19 19 20
13 13 13 14 15 18 22 23 20 17 17 17 18 20 21 21 19 18 18 17 18 19 19 18 18 18 18 19 20 20 18 18 18 18 17 18 17 16 17 18 19 20
12 12 14 15 16 18 22 25 25 21 18 17 16 17 19 20 20 19 18 17 17 18 18 18 17 17 17 18 18 17 17 17 17 18 18 18 17 17 18 19 19 20
11 12 14 16 17 20 23 25 26 23 19 17 17 16 16 17 18 19 18 17 16 17 18 18 17 17 19 19 17 15 15 16 16 17 18 17 17 19 21 20 20 20
12 12 15 16 17 19 21 24 25 21 17 16 17 16 15 15 15 16 16 15 14 16 18 18 18 20 20 18 16 15 16 16 16 17 17 17 19 21 20 19 20 19
13 14 15 16 17 18 20 22 23 19 14 12 13 13 12 13 13 13 14 13 13 14 16 16 18 19 19 18 17 17 17 17 16 16 17 19 21 20 18 18 18 18
14 14 15 16 17 18 19 21 21 17 13 11 9 9 11 12 13 12 12 12 12 12 13 16 18 19 20 20 19 18 18 16 15 14 16 18 19 18 18 17 16 16
16 15 15 16 17 18 19 21 22 19 16 14 11 10 11 13 14 14 13 12 12 13 14 16 18 19 21 21 20 18 16 15 14 13 15 16 15 15 17 16 14 14
17 16 16 16 17 18 20 22 23 23 22 20 18 16 14 13 14 15 15 14 14 14 16 18 17 18 21 21 20 17 13 13 15 13 13 14 13 14 15 13 11 11
16 17 17 17 18 20 22 24 24 24 24 24 22 21 19 17 15 14 15 16 15 15 17 18 16 17 20 19 18 16 13 13 14 12 12 14 14 14 14 13 11 9
15 16 16 17 19 22 23 23 23 23 22 22 21 21 21 19 16 15 15 15 15 14 14 15 13 15 19 19 16 15 13 14 14 13 12 12 13 13 12 13 12 10
15 16 16 17 20 23 23 21 21 21 20 18 18 18 18 18 16 13 12 10 9 9 10 13 15 17 19 17 15 14 14 12 11 10 11 12 13 13 11 11 12 13
13 14 16 16 17 22 22 20 19 20 18 16 15 16 16 16 15 13 11 10 8 4 1 6 11 15 17 15 13 12 11 9 8 10 12 12 13 14 12 11 12 12

ECMWFNIL_850_spd_096.txt.gz
Wind_Speed
9 9 10 10 10 11 12 12 12 13 15 16 18 21 22 24 25 26 26 26 26 25 24 25 26 25 24 23 23 24 26 27 25 24 26 26 26 26 26 27 26 25
9 10 11 11 11 11 12 13 14 14 15 16 18 19 21 23 24 26 27 28 28 25 23 25 25 25 26 24 24 25 27 27 24 23 26 27 26 26 26 27 26 26
10 12 12 11 12 12 12 14 14 14 14 16 18 19 21 22 22 23 24 27 29 28 25 24 23 25 26 25 24 25 26 27 25 23 25 27 26 25 26 26 26 26
12 12 11 10 11 13 13 14 15 15 15 16 18 20 21 22 23 23 23 24 27 28 28 26 25 25 26 26 26 26 26 26 25 24 24 25 26 25 26 26 27 27
12 12 12 12 12 12 13 15 16 16 17 18 19 21 22 22 23 23 23 23 24 26 26 26 26 25 25 26 26 27 27 26 24 23 23 24 25 25 26 27 28 28
13 12 12 14 14 14 14 15 15 16 18 19 20 21 22 23 23 22 22 23 24 25 25 25 25 24 24 26 27 29 28 25 23 23 23 24 24 24 25 25 26 27
14 13 13 14 16 16 14 13 13 14 15 18 20 21 22 23 23 21 20 21 23 25 24 24 23 22 23 25 27 29 28 24 23 23 22 22 22 23 22 23 24 24
15 15 14 15 16 16 15 14 15 15 15 16 19 20 21 22 23 22 20 19 21 22 22 22 21 20 21 22 24 26 27 26 25 23 21 20 20 21 21 21 23 24
16 16 15 15 16 16 17 17 17 16 16 16 18 19 20 21 22 22 21 19 19 20 19 19 20 19 19 20 22 23 26 27 26 23 22 20 20 21 21 21 23 24
16 17 16 16 16 19 22 22 19 18 16 17 18 19 20 21 21 21 21 19 19 18 17 17 18 19 19 19 19 21 24 25 24 23 23 21 21 22 22 22 23 23
17 18 16 15 17 20 23 24 23 20 17 16 17 18 20 21 22 21 21 20 20 18 18 17 17 19 19 19 19 21 23 23 23 23 22 21 22 22 22 22 22 22
16 17 16 15 17 18 19 21 23 23 21 18 17 17 17 19 21 21 21 20 20 20 20 19 18 18 18 18 18 19 20 21 22 22 21 22 22 22 22 22 21 20
16 15 15 17 18 18 18 20 23 24 23 22 19 18 17 17 18 19 20 19 19 19 19 19 18 18 18 18 18 19 19 20 20 20 20 20 21 21 22 21 20 19
16 13 15 17 19 19 20 23 25 26 25 24 22 19 17 16 16 17 18 19 19 18 18 18 17 17 19 19 19 19 20 21 20 19 19 18 18 19 21 20 19 18
16 13 16 18 18 19 22 24 26 27 27 26 24 20 15 15 16 17 16 17 18 18 18 19 18 17 18 20 19 18 20 21 20 18 18 17 18 19 20 18 17 18
15 14 17 19 20 21 23 25 26 26 26 25 24 21 16 15 16 16 16 16 18 18 18 18 17 16 17 18 19 18 19 20 19 18 17 16 18 20 19 17 16 18
16 14 16 19 20 21 23 24 25 25 24 23 22 20 17 16 16 15 15 16 16 17 17 17 17 17 16 17 19 18 19 19 18 17 17 16 18 20 19 18 18 18
18 16 16 18 20 21 23 24 24 23 23 21 20 19 17 15 15 15 16 16 15 14 14 14 15 18 18 17 18 19 19 19 18 17 16 15 17 20 20 19 19 19
19 17 17 19 21 22 23 25 24 24 24 23 21 19 16 14 13 14 15 16 16 14 13 12 13 17 20 18 19 21 20 17 15 14 13 13 15 18 20 22 21 20
18 18 19 21 21 22 25 26 26 26 26 26 25 22 20 17 14 12 12 13 14 14 14 14 14 17 18 18 20 21 18 14 13 11 10 11 14 16 19 19 18 17
18 18 20 22 22 23 26 26 27 27 28 28 28 27 26 25 22 18 14 12 12 13 14 15 16 17 17 15 17 18 15 12 11 10 8 9 11 13 13 14 14 13
18 18 20 22 24 24 26 27 28 28 28 27 27 28 28 29 28 27 24 19 15 14 13 14 15 16 17 16 15 16 14 12 9 8 7 8 9 11 11 11 12 11
19 19 19 22 24 24 25 28 28 28 28 27 26 27 27 27 27 27 27 26 23 21 18 17 16 15 16 16 14 13 13 12 9 8 7 8 9 10 9 9 10 9
18 19 18 20 22 23 24 26 27 28 27 25 25 25 24 23 23 24 24 24 23 22 19 17 15 13 11 9 10 13 12 9 6 6 6 7 9 8 6 7 7 6
16 18 17 17 19 21 23 25 26 27 27 25 25 24 22 20 20 20 21 22 21 18 17 16 12 8 6 4 4 7 7 4 1 2 4 5 6 5 4 5 6 5
16 17 17 16 17 19 22 25 26 27 27 27 26 24 22 19 18 19 20 20 20 20 22 23 20 17 16 15 11 9 8 7 6 6 3 2 4 5 4 6 8 8

ECMWFNIL_850_spd_102.txt.gz
Wind_Speed
11 12 13 14 15 15 16 16 16 15 16 16 17 18 18 19 19 19 20 19 19 18 18 18 18 19 19 20 22 23 24 24 24 24 25 29 30 29 28 28 28 29
7 7 9 11 12 12 13 13 13 14 15 16 17 18 18 19 19 19 20 20 20 19 18 18 18 18 19 20 21 22 22 22 23 23 23 25 27 28 27 27 26 27
6 6 6 6 6 6 7 9 10 12 13 13 14 15 16 17 18 19 19 19 20 19 18 18 18 18 19 20 21 22 21 21 21 21 22 23 24 25 25 26 26 27
4 4 2 2 2 1 3 4 7 9 11 11 12 13 15 16 17 19 19 19 19 18 18 17 17 18 18 19 21 22 21 20 19 20 22 22 22 22 23 24 25 26
7 5 4 3 2 1 1 2 4 6 7 9 11 13 15 16 17 19 19 19 19 17 17 17 18 17 17 18 20 21 21 20 19 19 20 22 22 22 22 23 24 25
8 6 5 3 1 1 2 3 4 4 5 7 9 11 12 14 16 17 18 19 18 17 16 17 18 17 17 18 19 20 20 20 19 18 19 20 20 22 23 23 24 25
7 5 3 1 1 2 4 5 5 5 6 8 10 12 13 13 14 15 16 17 16 16 16 17 17 17 17 17 18 19 20 20 20 20 20 19 19 21 22 22 23 24
5 3 1 1 3 4 5 5 5 6 9 10 11 12 13 14 14 15 16 16 16 15 16 16 16 16 16 17 18 19 20 20 20 20 21 20 19 19 20 21 22 23
3 2 0 3 5 6 6 6 7 9 10 12 12 13 13 14 14 15 16 17 17 17 17 16 15 15 16 16 17 19 21 21 20 21 21 20 19 18 18 20 22 23
2 1 3 6 7 7 7 8 9 10 11 12 12 12 13 13 13 14 15 16 17 18 18 17 15 14 15 16 17 18 20 20 20 21 21 20 19 18 19 20 22 24
0 2 6 8 9 9 10 11 12 11 12 12 12 13 13 13 13 13 13 14 16 17 17 16 15 14 15 16 18 19 19 20 20 21 21 20 18 18 19 20 22 25
2 5 8 10 11 11 12 12 12 12 13 13 14 14 14 14 14 14 13 13 14 15 16 15 15 16 17 18 19 20 20 19 20 20 20 20 20 19 19 19 21 23
4 7 10 11 11 12 12 12 13 13 13 14 14 15 15 16 16 16 15 15 14 14 14 14 15 17 18 19 21 21 20 19 19 19 20 21 21 21 20 20 21 22
7 9 11 11 12 12 12 12 12 13 13 14 14 15 15 17 18 17 16 15 15 15 15 15 16 18 19 21 21 20 18 18 18 18 19 20 21 21 20 20 20 21
10 11 12 12 12 12 12 11 11 11 12 12 13 14 15 16 17 18 18 17 16 15 15 16 17 18 19 20 21 20 18 17 17 17 18 19 20 19 19 19 18 19
12 13 14 14 14 14 13 12 12 11 12 12 12 13 14 15 16 17 18 18 18 17 16 16 17 18 18 19 19 19 20 18 17 18 19 18 18 18 18 17 16 16
13 14 16 16 17 17 16 16 15 14 14 13 13 13 14 16 17 17 18 18 19 19 18 17 17 18 18 18 18 19 20 19 18 18 18 17 16 16 17 16 15 15
15 15 17 18 18 19 19 19 19 18 18 16 14 15 16 17 19 20 20 21 23 22 20 19 17 17 17 17 15 16 17 17 17 18 17 14 13 13 14 15 15 15
17 16 17 18 19 19 20 20 20 21 21 19 17 17 18 19 21 22 22 23 25 25 24 22 20 18 17 15 13 12 12 13 14 14 13 12 12 12 13 14 14 14
17 17 17 18 18 18 19 20 21 22 23 22 20 19 20 21 22 22 22 22 22 23 24 24 23 23 20 15 12 9 8 9 10 9 9 11 12 12 12 13 13 11
16 16 16 17 17 17 18 19 20 22 23 24 23 22 22 22 21 21 20 20 20 20 21 23 24 24 23 20 16 12 8 7 7 7 7 8 8 9 10 11 11 10
15 15 16 16 16 16 18 19 21 22 24 24 24 22 21 20 20 20 19 18 19 19 20 21 22 22 22 21 19 16 11 7 5 4 5 5 6 8 9 9 11 11
17 17 17 17 17 17 18 19 20 21 23 23 22 21 20 19 19 19 18 17 18 19 19 19 20 22 22 21 20 17 13 9 7 6 5 6 7 8 8 9 10 10
18 18 18 17 17 17 16 16 18 20 21 21 21 21 20 19 19 18 18 18 19 20 20 19 19 21 21 20 20 19 17 15 13 10 9 8 8 8 8 8 9 9
18 17 17 17 17 16 14 13 15 17 18 18 19 21 21 20 19 19 20 21 21 21 21 21 21 22 21 20 19 19 18 17 15 14 11 9 9 10 9 9 11 12
16 16 17 17 17 16 14 13 13 14 15 16 17 19 20 20 20 19 20 21 22 22 22 23 23 22 22 21 20 21 20 19 19 18 15 11 9 9 8 7 7 8

ECMWFNIL_850_spd_108.txt.gz
Wind_Speed
17 18 18 18 17 17 17 16 16 17 18 19 20 20 21 21 21 20 20 20 21 22 23 23 24 24 25 24 24 23 23 24 24 25 25 24 24 24 24 24 25 25
17 17 16 15 15 15 15 15 16 17 18 19 19 20 20 21 21 21 21 21 22 22 23 24 24 25 25 25 25 24 24 25 26 26 26 25 24 24 24 25 26 26
13 13 12 12 13 14 15 15 16 16 17 18 18 19 19 20 21 21 22 22 23 23 24 24 24 25 25 25 25 26 26 26 26 27 26 25 25 25 24 24 25 25
8 9 10 11 12 13 13 14 15 15 16 17 18 19 20 21 21 22 22 22 23 23 24 24 24 24 24 25 26 26 26 26 26 26 27 27 26 25 25 24 24 24
7 8 9 10 11 12 13 13 14 15 16 17 19 20 20 21 21 21 21 22 22 23 23 24 24 25 25 26 26 27 27 26 25 25 26 26 25 25 26 26 25 24
7 8 9 10 11 11 12 13 13 15 16 17 18 19 20 20 20 21 21 22 22 22 23 24 25 25 26 27 27 27 27 26 24 23 24 25 25 24 24 26 27 25
7 8 9 9 10 11 12 14 15 16 17 17 18 19 20 20 20 21 21 21 21 21 22 23 24 24 25 26 26 27 26 25 24 23 23 23 23 23 23 26 28 25
7 8 9 10 11 12 14 14 15 16 16 17 17 18 20 20 20 20 21 21 21 21 21 21 22 22 23 24 25 25 25 24 23 22 21 21 21 23 25 27 26 23
8 9 10 11 12 12 13 13 14 14 15 15 16 17 18 19 19 19 20 20 20 20 20 21 21 22 23 24 25 26 26 25 22 20 20 22 23 24 25 25 23 21
9 10 10 10 11 11 12 12 12 13 13 14 15 16 17 18 19 19 20 20 20 21 21 21 22 23 23 24 25 26 27 26 24 21 20 22 24 24 26 26 24 21
8 8 8 9 10 10 11 11 12 13 14 15 16 17 18 18 19 20 20 21 21 22 22 22 22 23 24 24 25 26 26 26 26 24 22 22 23 23 25 26 24 20
6 6 7 9 10 11 11 12 13 14 15 16 17 18 19 19 19 20 20 20 20 21 21 22 22 23 24 24 25 26 26 26 25 24 23 21 21 21 21 21 20 18
6 7 8 9 11 12 13 14 14 15 16 17 18 19 19 18 18 18 18 18 19 19 20 21 23 23 24 24 25 25 25 24 23 22 20 19 19 19 18 18 17 17
7 8 9 11 12 13 14 15 15 16 17 17 18 18 17 17 17 16 16 17 17 18 19 21 22 23 24 25 25 25 24 22 21 19 17 16 17 17 17 17 17 16
8 9 10 11 12 13 14 15 15 16 17 17 16 16 15 15 15 15 15 15 16 17 19 20 20 21 22 23 24 24 23 21 19 17 16 15 16 16 16 17 16 15
8 9 10 10 11 12 13 14 15 15 15 15 14 14 13 14 15 15 15 16 16 17 18 19 19 20 20 20 21 22 22 21 19 18 16 16 16 16 17 17 16 16
8 8 9 10 11 12 12 13 14 14 14 13 13 12 13 14 14 15 15 16 17 17 18 18 18 19 20 19 19 20 21 21 20 19 17 16 16 16 17 17 17 16
8 8 9 10 10 11 11 12 13 13 13 13 13 13 14 14 15 15 16 17 17 17 17 18 18 19 20 21 21 21 21 21 20 18 17 16 15 16 16 16 16 14
8 8 9 9 10 10 11 12 13 13 14 15 14 14 14 14 15 16 16 17 17 17 17 17 18 19 20 23 25 25 23 22 20 17 15 14 14 15 15 14 14 14
8 9 9 9 9 9 10 11 12 13 13 14 14 14 14 15 15 16 16 17 17 18 18 18 19 21 22 23 26 27 25 23 20 18 16 15 13 13 13 13 14 15
8 9 9 9 8 9 9 10 11 12 13 13 14 15 15 15 15 15 16 17 17 18 18 18 20 22 23 23 24 24 25 24 23 21 19 18 16 14 14 15 15 15
8 8 8 8 8 8 9 10 11 12 13 14 14 14 14 15 15 16 17 17 17 18 19 19 21 22 23 23 23 22 22 22 23 22 22 20 18 17 16 16 16 16
7 8 8 9 9 9 10 11 11 12 13 14 14 14 14 15 16 17 18 19 19 19 20 21 22 23 23 24 24 23 22 21 21 21 21 21 20 18 18 18 18 18
9 9 10 10 10 11 11 11 12 13 13 14 14 14 15 15 16 16 17 18 19 20 20 21 22 23 23 24 25 25 24 23 22 22 23 23 22 22 22 23 23 23
11 12 12 12 12 11 11 12 13 14 14 14 14 14 14 14 15 16 16 17 18 19 20 20 21 22 23 24 25 25 26 25 24 24 25 25 26 26 27 28 29 30
13 12 12 12 12 12 12 13 13 13 13 14 14 14 14 14 15 15 16 17 18 19 19 20 21 22 22 23 24 25 26 26 25 26 27 27 27 28 29 31 32 32

ECMWFNIL_850_spd_111.txt.gz
Wind_Speed
12 12 12 12 13 13 13 12 12 12 12 13 13 13 13 14 15 15 16 16 16 17 18 18 19 19 20 20 21 22 20 17 16 16 16 17 18 19 20 20 20 21
12 11 11 11 11 11 11 11 11 11 11 12 12 13 14 15 16 16 17 17 17 18 18 19 19 20 21 22 22 23 21 17 15 15 15 16 17 19 19 19 21 22
9 9 9 9 9 9 10 10 10 10 11 12 13 14 15 15 16 16 17 18 18 19 19 20 20 21 21 22 22 23 22 19 16 15 15 15 17 18 18 18 20 21
6 6 6 7 7 8 8 8 9 10 11 12 14 14 15 15 15 16 17 18 19 19 20 20 20 20 21 21 21 21 20 19 18 17 17 16 15 16 17 18 19 19
5 5 5 6 6 6 7 8 9 10 11 12 13 13 14 15 16 17 17 18 18 19 19 19 19 19 20 20 21 21 20 19 19 19 19 18 17 16 16 17 18 19
5 6 6 6 6 7 7 8 9 10 11 12 12 13 14 15 16 16 16 17 17 17 18 18 18 18 18 19 20 21 22 22 21 21 21 20 18 18 17 15 15 17
6 6 6 6 6 7 7 8 9 10 11 11 12 13 13 14 14 15 16 16 17 17 17 18 18 18 18 19 19 20 22 22 22 22 22 21 19 17 15 15 16 17
6 6 6 6 7 7 8 9 9 10 11 11 12 13 13 14 15 16 16 17 17 17 17 17 18 18 18 18 19 20 21 22 22 22 22 22 20 18 15 15 17 19
6 6 6 7 8 8 9 9 9 10 11 12 12 13 15 16 16 17 17 17 17 17 17 17 17 18 18 19 20 20 21 21 22 22 21 21 20 19 16 14 16 19
5 6 6 7 8 8 9 9 10 11 12 13 14 14 15 16 16 17 17 17 17 17 17 17 18 20 21 21 22 22 22 22 21 21 21 20 20 17 15 14 16 18
5 6 7 7 8 9 10 10 11 12 12 13 14 14 15 15 16 16 16 17 17 17 18 19 20 21 22 23 22 22 22 22 21 21 21 20 18 15 14 14 15 17
5 6 6 8 9 10 11 11 12 12 13 13 14 15 15 15 16 16 16 16 17 17 18 19 21 22 23 23 22 21 22 22 21 21 21 20 18 15 13 14 15 15
5 6 7 8 10 11 12 12 12 13 13 14 14 15 15 15 15 15 15 16 16 17 18 20 21 21 22 22 22 22 21 21 21 21 21 20 18 16 14 14 14 14
6 7 8 10 11 12 12 12 12 13 13 14 14 14 14 14 14 15 15 15 16 17 18 19 20 21 22 23 22 21 21 20 20 20 19 19 18 17 16 15 14 14
7 8 9 10 11 11 11 11 12 13 13 13 13 13 14 14 15 15 15 15 16 17 18 18 19 21 23 24 24 22 21 21 21 20 19 18 16 15 16 15 15 14
7 8 9 10 10 10 10 11 12 13 14 14 14 14 15 15 15 15 16 17 17 18 18 19 20 22 24 25 25 24 23 23 23 22 20 18 16 14 14 15 15 15
7 8 9 9 9 9 9 11 12 13 14 14 15 16 16 16 17 18 19 20 20 20 20 20 21 23 24 24 25 25 24 24 23 22 19 18 17 15 15 15 14 13
7 8 8 8 8 9 10 11 11 12 13 15 17 18 18 19 20 21 22 23 23 23 23 23 23 23 24 24 25 25 24 23 22 22 20 18 17 16 15 15 15 13
7 8 8 8 8 10 11 11 12 13 14 16 18 19 20 21 22 23 23 24 24 25 24 24 23 24 24 24 24 24 24 22 21 20 19 18 17 17 16 16 16 15
7 8 8 8 9 10 11 11 13 14 16 17 18 19 20 20 21 22 23 23 24 24 23 23 23 23 24 24 24 23 22 22 21 19 18 18 18 18 18 18 18 18
7 8 8 9 10 10 11 13 15 16 18 19 19 20 20 20 21 22 22 22 22 22 22 22 22 22 22 23 23 22 21 20 20 20 19 19 19 19 20 21 22 22
8 9 9 10 11 11 13 15 17 18 19 19 19 19 19 20 21 21 21 21 20 20 20 20 20 21 21 21 22 21 20 20 20 21 22 23 24 24 25 27 28 28
10 10 10 11 12 13 15 17 18 18 19 19 18 19 19 19 20 20 20 20 20 20 19 19 19 19 20 21 21 20 19 20 21 22 23 25 26 28 29 30 30 31
11 11 12 13 14 16 17 17 17 18 18 17 18 18 18 18 19 18 18 19 20 20 19 19 19 19 20 20 21 21 21 21 21 22 24 25 26 27 28 28 28 29
12 12 13 14 16 16 16 17 17 17 17 17 17 17 17 18 18 18 19 19 20 20 20 19 20 19 20 20 21 22 22 22 22 23 24 24 24 24 24 25 25 25
14 14 15 16 17 17 17 18 19 19 18 18 18 18 17 18 18 18 19 20 20 21 21 22 23 22 21 20 20 20 21 21 21 22 23 22 22 22 22 22 22 22

ECMWFNIL_850_spd_114.txt.gz
Wind_Speed
2 2 2 2 1 1 1 1 2 2 3 4 4 5 7 9 9 8 8 8 9 9 10 10 11 11 12 11 12 13 13 13 13 11 12 14 15 16 17 17 18 18
4 3 2 0 1 2 2 3 3 4 5 6 7 7 8 9 9 9 9 10 10 11 11 11 11 12 12 12 13 14 14 14 13 12 12 14 15 16 16 16 17 18
3 1 1 1 2 2 3 3 4 5 6 7 7 7 8 8 8 9 10 11 11 11 12 12 12 12 13 13 14 15 15 14 13 13 14 15 15 16 16 16 16 15
1 1 1 2 1 2 2 3 4 5 6 6 6 6 7 8 8 9 10 10 11 11 12 12 12 13 14 14 15 16 16 16 16 16 16 16 15 14 15 16 17 15
1 1 1 1 1 1 2 3 3 4 4 4 5 6 7 8 8 9 10 10 11 11 12 12 13 13 14 15 15 16 17 17 18 18 18 19 17 15 14 15 16 17
1 0 1 1 1 1 1 2 3 3 4 4 6 6 7 8 9 9 10 10 11 11 12 12 12 12 13 14 14 15 16 17 18 18 18 19 19 17 16 16 16 16
1 1 1 2 2 2 2 3 3 4 4 5 6 7 8 8 9 9 10 10 10 10 11 11 11 12 13 13 14 15 16 16 17 17 17 17 17 17 17 16 16 15
1 2 3 4 3 3 3 3 3 4 5 6 7 7 8 8 8 9 9 9 9 9 10 11 12 13 14 16 16 16 17 17 17 17 16 16 16 16 16 14 15 15
3 4 4 5 4 3 3 3 3 5 5 6 7 7 8 8 8 8 9 9 9 10 11 13 14 15 16 17 18 17 17 17 17 16 16 17 17 16 15 13 12 13
5 5 5 5 5 4 4 4 5 6 6 7 7 8 8 9 9 9 10 10 11 12 13 14 15 16 17 17 17 16 17 16 16 16 17 18 18 17 15 13 12 11
7 6 5 5 5 5 5 5 6 7 7 7 8 9 9 10 10 11 12 12 13 14 15 16 16 17 17 17 17 16 15 15 14 15 15 16 16 15 15 14 13 12
7 6 5 5 5 5 6 6 7 7 7 8 9 10 10 11 12 12 13 14 14 15 16 16 16 17 18 18 19 18 17 16 16 16 15 14 14 13 13 13 13 12
6 5 5 5 5 6 7 7 7 8 9 10 10 10 11 12 13 14 14 15 16 16 16 16 16 17 18 20 21 21 20 20 19 19 18 17 15 13 12 12 13 13
6 5 6 6 7 8 8 9 9 10 11 11 11 12 13 14 15 16 14 13 15 17 17 16 17 18 19 20 21 21 21 20 20 20 20 19 17 15 13 13 13 13
6 6 7 8 8 9 10 10 11 12 12 12 13 14 16 17 17 17 15 13 15 18 18 18 19 19 20 21 21 21 20 18 18 18 18 18 17 15 15 15 15 15
7 8 8 8 9 10 10 11 12 12 13 13 14 16 17 17 16 16 15 14 16 18 19 19 20 20 20 20 20 19 18 17 16 16 16 16 15 15 15 15 15 14
8 8 8 8 9 10 11 11 11 12 12 13 14 16 17 16 15 15 15 14 15 18 19 19 19 19 19 19 18 17 16 15 16 16 15 15 15 15 15 14 14 13
8 8 8 8 9 10 11 11 10 11 11 12 13 14 15 16 15 15 14 12 13 16 18 18 18 18 18 18 17 15 15 15 15 15 15 16 16 17 17 16 15 14
8 8 8 8 9 9 9 10 10 10 11 11 12 12 12 14 15 15 14 12 11 14 17 17 17 17 17 17 16 14 14 15 15 15 16 17 19 20 20 20 19 19
8 8 8 8 9 9 9 9 10 10 10 10 11 10 10 11 13 14 14 13 12 12 15 17 17 17 16 16 14 13 13 14 13 14 16 17 19 20 21 22 22 23
9 8 8 9 9 9 9 10 10 11 11 11 11 11 11 11 11 12 13 13 12 11 14 17 17 16 16 15 14 13 13 13 12 13 15 17 19 20 21 22 22 22
9 9 10 10 10 10 11 11 11 11 11 12 14 16 16 14 12 14 15 14 12 11 13 17 18 17 17 17 15 14 13 12 12 13 15 18 20 21 21 22 22 22
10 10 11 11 11 11 11 11 11 11 11 13 16 19 20 18 18 20 20 19 16 13 13 17 20 20 19 18 18 16 13 11 11 12 13 15 18 20 21 22 23 24
11 11 11 11 11 12 11 11 11 11 12 15 18 19 20 20 20 21 22 22 22 19 17 20 22 22 21 21 21 19 14 11 11 12 12 13 15 17 19 20 21 24
11 11 11 12 12 12 11 11 12 13 15 17 18 18 19 19 19 20 21 22 24 24 23 23 24 24 24 24 24 23 18 13 12 12 13 14 15 15 17 17 18 22
11 11 12 12 12 12 12 14 16 18 19 18 17 17 17 18 19 20 22 22 22 23 23 23 24 24 25 26 26 27 25 18 14 13 14 15 15 15 17 18 17 19

ECMWFNIL_850_spd_117.txt.gz
Wind_Speed
6 5 5 5 6 5 4 3 2 1 1 1 1 1 2 3 4 4 4 5 5 5 6 7 7 8 8 7 7 8 7 8 9 9 10 12 13 14 15 16 17 16
4 4 3 4 4 3 3 3 3 2 1 1 0 1 2 4 4 4 4 4 4 4 6 6 7 8 8 8 9 9 9 9 9 9 11 13 13 15 16 16 18 18
4 5 5 4 4 4 3 2 3 2 1 1 1 1 2 3 4 4 4 4 5 6 7 7 8 8 9 9 10 10 10 10 10 11 13 14 14 14 15 15 15 16
5 5 5 4 4 4 4 3 3 3 2 2 1 1 2 3 4 4 5 6 6 7 8 9 9 10 10 11 11 11 11 11 12 13 15 15 14 14 15 14 14 14
5 5 5 5 5 4 4 5 4 3 2 2 2 2 3 3 4 5 6 7 7 8 9 9 10 10 10 11 12 11 11 11 12 14 15 15 15 15 15 16 16 15
5 5 5 5 5 5 5 5 5 4 3 2 3 2 3 3 4 5 5 6 7 8 8 8 9 9 10 11 11 11 11 12 13 15 15 15 16 16 16 16 16 16
6 6 6 5 5 5 5 5 4 4 3 2 3 3 3 4 4 5 5 6 7 7 8 8 9 9 10 11 11 12 13 13 14 15 15 15 16 16 15 15 15 15
6 6 6 6 6 5 5 4 4 3 3 3 3 3 3 4 4 5 6 7 7 7 8 9 10 11 12 12 12 12 13 14 14 14 15 16 17 17 16 16 15 14
6 6 6 6 6 5 5 5 4 3 4 4 4 3 4 4 5 6 6 7 7 9 10 10 11 12 13 13 13 13 13 12 12 13 14 15 16 17 16 16 16 15
7 7 7 7 7 6 5 5 4 3 4 5 4 4 5 5 6 6 7 7 8 10 11 11 12 13 13 14 14 13 13 13 13 13 13 14 14 15 15 15 16 16
8 7 7 7 7 6 5 5 5 4 5 5 5 6 7 7 7 7 8 8 9 10 11 12 12 12 13 13 14 13 13 13 13 12 12 13 14 14 14 15 15 16
8 7 8 8 7 6 5 6 6 6 6 7 7 8 8 8 8 8 8 9 9 10 12 11 11 12 12 13 13 12 12 12 12 12 12 13 13 13 13 14 14 15
8 7 7 7 7 7 7 7 7 8 8 8 8 8 8 8 9 9 8 8 9 11 11 10 11 12 12 12 12 12 12 11 11 12 12 13 13 12 12 13 13 13
7 8 8 8 8 8 8 8 9 10 9 9 8 8 9 9 9 10 9 8 9 10 11 11 11 11 12 12 12 12 12 11 10 12 13 13 13 12 12 12 13 13
8 9 10 10 10 9 9 10 10 10 9 8 8 8 9 9 9 9 9 8 9 10 11 11 12 12 13 13 13 13 12 11 10 11 12 13 13 13 14 13 13 14
9 11 11 11 10 9 9 10 9 9 8 8 9 8 9 9 9 9 9 9 10 11 12 12 13 13 13 14 14 14 13 11 10 10 11 12 13 13 14 14 14 14
9 10 10 10 9 9 9 9 8 8 8 8 9 9 9 8 9 9 9 9 10 11 13 13 13 13 13 13 13 13 12 10 10 10 11 12 13 14 15 15 14 14
10 10 10 9 10 9 9 9 9 8 8 8 9 9 9 8 9 9 9 9 9 11 13 12 12 13 12 12 12 12 11 9 9 10 11 12 13 14 16 17 18 18
11 11 10 10 10 9 9 9 9 9 9 8 8 9 9 9 9 9 9 9 9 11 12 12 12 12 12 12 12 12 11 10 9 10 11 12 14 15 15 18 22 23
12 11 11 11 10 10 9 9 9 9 9 9 9 9 9 9 9 9 9 9 10 10 12 13 13 12 12 11 11 12 12 10 9 10 11 12 14 15 16 18 23 25
12 12 11 11 11 10 10 10 10 10 9 9 9 10 10 10 10 10 10 10 10 11 14 15 15 14 13 11 10 11 12 11 9 10 12 13 15 16 16 17 23 28
12 12 12 11 11 11 11 11 11 11 11 10 11 11 12 11 11 11 11 11 11 13 16 17 17 16 16 14 11 11 12 11 11 11 13 14 15 16 15 17 23 29
13 13 13 12 12 12 11 11 11 11 11 10 11 12 13 13 14 15 15 14 14 17 19 19 19 19 19 17 13 11 13 13 12 12 14 15 16 16 16 17 22 27
14 14 13 12 12 12 11 11 11 11 11 11 11 11 11 12 14 17 19 18 17 19 19 19 20 20 20 20 17 14 15 14 12 14 15 15 15 16 16 16 19 24
14 14 14 13 13 12 12 12 11 11 11 11 11 11 11 11 12 14 16 18 18 18 18 18 19 20 21 22 21 19 18 15 13 14 16 16 15 15 16 16 17 21
15 14 14 14 14 13 13 12 11 11 11 10 10 11 11 11 12 12 13 16 17 18 18 18 18 19 20 21 22 22 22 18 14 14 15 15 15 15 16 16 16 18

ECMWFNIL_850_spd_123.txt.gz
Wind_Speed
22 22 22 21 20 20 19 17 16 14 13 13 13 13 10 6 4 5 4 4 4 3 2 2 2 3 4 4 4 5 7 8 9 10 11 11 12 12 13 13 14 16
21 20 20 20 19 19 18 16 15 15 14 14 13 13 10 6 6 6 4 4 3 2 1 2 2 2 3 4 4 5 6 7 7 7 8 8 8 9 10 11 11 12
21 20 19 19 18 18 17 16 15 14 14 14 13 12 10 8 8 7 5 4 3 2 2 2 2 1 1 3 3 3 4 4 5 5 6 7 7 8 9 11 11 11
21 20 19 18 17 17 16 16 15 14 14 12 11 10 10 10 8 5 4 3 2 2 2 2 2 1 0 1 2 3 4 4 5 6 6 7 8 9 10 12 13 12
19 18 18 18 18 17 17 17 16 14 12 11 10 11 11 10 8 5 4 3 4 4 3 2 2 2 2 3 3 4 4 5 5 6 7 7 8 10 11 13 13 13
18 18 18 18 17 17 17 16 15 13 11 11 12 12 11 9 7 5 4 5 5 4 2 2 3 4 4 4 4 4 4 5 6 6 7 8 9 10 11 12 13 14
18 18 18 17 17 16 15 14 13 12 12 12 11 10 8 6 5 6 6 5 4 3 4 5 6 5 5 6 5 5 5 5 5 6 8 9 10 10 12 13 14 16
17 17 16 16 15 14 13 13 11 10 12 11 9 7 8 9 9 9 6 4 4 6 6 6 6 6 5 5 5 6 6 6 7 8 10 11 12 12 13 14 16 17
16 15 15 14 14 13 13 12 10 10 11 11 9 10 12 12 10 7 5 5 7 7 6 6 5 5 4 4 5 5 7 8 10 11 12 13 13 13 14 14 16 17
15 14 14 14 13 13 12 11 11 11 11 11 12 15 15 12 9 6 5 7 8 7 6 5 4 4 4 4 5 6 7 9 11 12 11 11 11 11 12 12 14 15
15 14 14 14 13 13 13 13 12 11 10 11 15 18 15 10 8 6 8 8 8 6 5 4 4 4 4 5 6 7 7 9 10 10 9 8 10 10 9 9 11 13
16 15 14 13 13 13 14 13 12 14 16 16 16 15 12 9 6 7 9 9 7 6 4 4 4 4 5 6 7 7 7 8 9 8 8 9 11 11 10 9 10 13
13 13 13 13 13 15 15 15 17 20 20 19 15 11 8 6 5 8 10 9 7 6 5 5 4 5 6 7 7 8 8 8 8 8 9 11 12 12 12 12 12 14
13 13 14 14 14 17 17 18 21 23 20 18 16 12 8 5 6 9 10 9 7 6 5 5 5 5 7 8 9 8 8 8 8 9 11 13 14 15 15 15 16 18
14 14 14 14 15 17 19 20 23 23 20 19 17 13 9 6 8 10 10 9 7 6 6 5 5 7 9 10 9 8 8 9 11 12 13 15 17 18 18 18 20 22
16 16 15 16 18 20 20 21 22 22 21 19 16 13 9 6 9 11 9 8 7 6 6 7 7 9 10 10 9 9 10 11 12 14 17 18 19 20 21 22 23 25
17 18 18 19 20 21 20 19 19 20 21 19 16 13 9 8 11 11 9 9 8 8 8 8 10 11 11 11 11 12 13 14 16 18 21 22 22 23 24 25 25 27
18 19 19 18 19 20 19 17 15 17 19 18 15 13 10 9 11 11 10 10 9 9 9 10 12 13 13 12 13 14 16 18 20 21 23 23 24 25 25 25 26 28
20 20 19 18 19 18 16 14 13 14 15 15 14 14 12 10 11 12 12 12 11 11 11 12 14 15 14 13 14 16 19 21 22 23 23 24 25 26 26 26 27 28
22 21 19 19 19 17 15 14 16 16 16 15 15 15 13 12 13 14 14 14 13 13 13 14 15 15 14 13 14 17 20 22 23 23 23 24 25 26 27 28 28 28
21 20 19 19 19 18 18 19 19 18 18 18 17 15 14 15 15 16 16 16 15 14 14 16 16 15 13 12 15 18 19 20 20 21 22 22 23 25 26 27 28 28
20 20 21 20 20 20 20 20 20 18 18 17 16 15 16 17 17 17 17 17 16 15 14 16 17 15 12 12 15 18 18 17 17 17 19 20 20 22 23 25 26 27
21 22 22 22 21 21 21 20 18 17 15 14 14 15 18 18 17 17 17 16 16 16 15 15 16 14 11 11 13 14 15 16 16 16 16 17 18 20 22 24 25 25
21 21 21 21 22 22 20 18 17 16 15 15 16 18 19 18 17 17 17 16 16 16 16 15 15 13 10 9 10 11 13 15 16 15 15 16 18 20 21 22 23 24
20 20 20 22 22 20 18 18 18 19 20 20 20 20 19 18 17 17 17 17 16 16 16 16 16 15 12 11 11 11 12 14 14 15 17 18 19 20 21 21 22 23
21 22 22 21 19 18 19 19 19 19 20 21 21 20 19 19 18 17 18 17 16 15 15 15 16 16 15 14 13 12 12 12 13 15 17 19 20 21 21 21 21 22